Location: Huntsville
(41.2590°N, 111.7678°W)
Time: 21:02:31
(UTC+00:00)

ISS - Pass Details

Date: 03 December 2021
Orbit: 413 x 422 km, 51.6° (Epoch: 25 January)

Event Time Altitude Azimuth Distance (km) Brightness Sun altitude
Rises 02:07:28 0° 309° (NW) 2,383 0.7 -23.6°
Reaches altitude 10° 02:09:39 10° 317° (NW) 1,513 -0.5 -24.0°
Enters shadow 02:10:47 18° 325° (NW) 1,099 -1.4 -24.2°
